ARG1975 SAZB-SUMU

Flight info

Callsign ARG1975
Flight time N/A
Altitude 37000
Route PULAS UW22 EZE UM424 TOKAM
Aircraft B738/M-SDE2E3FGHIRWXY/LB1

Departure

Time N/A
Airport Comandante Espora Airport (SAZB)

Arrival

Time 2026-05-08 23:49
Airport Carrasco General Cesáreo L. Berisso International Airport (SUMU)
Time Latitude Longitude Altitude Speed Heading
2026-05-08 22:54 -38.00450 -61.50726 24873 ft 454 kts 28°
2026-05-08 22:54 -37.97654 -61.48869 25396 ft 453 kts 28°
2026-05-08 22:54 -37.94908 -61.46863 25719 ft 458 kts 33°
2026-05-08 22:54 -37.92270 -61.44594 26128 ft 459 kts 35°
2026-05-08 22:55 -37.89672 -61.42227 26490 ft 462 kts 36°
2026-05-08 22:55 -37.87062 -61.39815 26765 ft 466 kts 36°
2026-05-08 22:55 -37.84433 -61.37402 27207 ft 466 kts 35°
2026-05-08 22:55 -37.81801 -61.35017 27504 ft 470 kts 35°
2026-05-08 22:56 -37.79110 -61.32607 27786 ft 473 kts 34°
2026-05-08 22:56 -37.76409 -61.30210 28041 ft 477 kts 34°
2026-05-08 22:56 -37.73668 -61.27792 28248 ft 482 kts 34°
2026-05-08 22:56 -37.70917 -61.25373 28706 ft 480 kts 34°
2026-05-08 22:57 -37.68179 -61.22970 29159 ft 480 kts 34°
2026-05-08 22:57 -37.65430 -61.20560 29476 ft 482 kts 34°
2026-05-08 22:57 -37.62712 -61.18179 29859 ft 481 kts 33°
2026-05-08 22:57 -37.59959 -61.15768 30079 ft 484 kts 34°
2026-05-08 22:58 -37.57191 -61.13344 30379 ft 484 kts 34°
2026-05-08 22:58 -37.54439 -61.10935 30858 ft 480 kts 34°
2026-05-08 22:58 -37.51692 -61.08534 31055 ft 483 kts 34°
2026-05-08 22:58 -37.48933 -61.06124 31448 ft 480 kts 34°
2026-05-08 22:59 -37.46200 -61.03739 31883 ft 477 kts 34°
2026-05-08 22:59 -37.43469 -61.01357 32167 ft 478 kts 34°
2026-05-08 22:59 -37.40744 -60.98985 32644 ft 474 kts 34°
2026-05-08 22:59 -37.38036 -60.96629 32967 ft 474 kts 34°
2026-05-08 23:00 -37.35312 -60.94261 33235 ft 475 kts 35°
2026-05-08 23:00 -37.32603 -60.91908 33649 ft 472 kts 35°
2026-05-08 23:00 -37.29901 -60.89563 33869 ft 474 kts 35°
2026-05-08 23:00 -37.27192 -60.87214 34155 ft 472 kts 35°
2026-05-08 23:01 -37.24496 -60.84879 34498 ft 470 kts 35°
2026-05-08 23:01 -37.21794 -60.82540 34655 ft 472 kts 35°
2026-05-08 23:01 -37.19151 -60.80098 34883 ft 472 kts 41°
2026-05-08 23:01 -37.16836 -60.77178 35041 ft 473 kts 49°
2026-05-08 23:02 -37.14645 -60.74095 35210 ft 475 kts 49°
2026-05-08 23:02 -37.12465 -60.70978 35397 ft 476 kts 49°
2026-05-08 23:02 -37.10276 -60.67849 35553 ft 478 kts 49°
2026-05-08 23:02 -37.08085 -60.64742 35911 ft 474 kts 49°
2026-05-08 23:03 -37.05896 -60.61665 36204 ft 472 kts 48°
2026-05-08 23:03 -37.03708 -60.58613 36476 ft 470 kts 48°
2026-05-08 23:03 -37.01522 -60.55577 36667 ft 470 kts 48°
2026-05-08 23:03 -36.99322 -60.52533 36744 ft 471 kts 48°
2026-05-08 23:04 -36.94951 -60.46504 36754 ft 473 kts 48°
2026-05-08 23:04 -36.90518 -60.40398 36772 ft 477 kts 47°
2026-05-08 23:05 -36.86032 -60.34224 36762 ft 482 kts 47°
2026-05-08 23:05 -36.81510 -60.28010 36773 ft 484 kts 47°
2026-05-08 23:06 -36.76963 -60.21773 36774 ft 485 kts 47°
2026-05-08 23:06 -36.72433 -60.15572 36756 ft 483 kts 47°
2026-05-08 23:07 -36.67928 -60.09414 36749 ft 479 kts 47°
2026-05-08 23:07 -36.63448 -60.03305 36750 ft 477 kts 46°
2026-05-08 23:08 -36.58981 -59.97225 36757 ft 476 kts 46°
2026-05-08 23:08 -36.54497 -59.91132 36765 ft 479 kts 46°
2026-05-08 23:09 -36.49972 -59.84997 36770 ft 483 kts 46°
2026-05-08 23:09 -36.45457 -59.78886 36747 ft 483 kts 47°
2026-05-08 23:10 -36.40932 -59.72772 36739 ft 478 kts 46°
2026-05-08 23:10 -36.36452 -59.66733 36739 ft 474 kts 46°
2026-05-08 23:11 -36.31998 -59.60737 36741 ft 471 kts 46°
2026-05-08 23:11 -36.27546 -59.54754 36757 ft 474 kts 46°
2026-05-08 23:12 -36.23035 -59.48705 36753 ft 480 kts 46°
2026-05-08 23:12 -36.18485 -59.42616 36748 ft 482 kts 46°
2026-05-08 23:13 -36.14694 -59.37544 36745 ft 483 kts 46°
2026-05-08 23:13 -36.10132 -59.31455 36741 ft 482 kts 45°
2026-05-08 23:14 -36.05572 -59.25383 36743 ft 481 kts 46°
2026-05-08 23:14 -36.01026 -59.19343 36738 ft 479 kts 45°
2026-05-08 23:15 -35.96502 -59.13338 36737 ft 477 kts 45°
2026-05-08 23:15 -35.91987 -59.07357 36744 ft 475 kts 45°
2026-05-08 23:16 -35.87482 -59.01400 36748 ft 473 kts 45°
2026-05-08 23:16 -35.83020 -58.95513 36741 ft 472 kts 45°
2026-05-08 23:17 -35.78535 -58.89602 36747 ft 472 kts 45°
2026-05-08 23:17 -35.74049 -58.83702 36749 ft 472 kts 45°
2026-05-08 23:18 -35.69566 -58.77816 36748 ft 472 kts 45°
2026-05-08 23:18 -35.65070 -58.71921 36745 ft 472 kts 45°
2026-05-08 23:19 -35.60573 -58.66026 36751 ft 472 kts 45°
2026-05-08 23:19 -35.56071 -58.60144 36751 ft 473 kts 45°
2026-05-08 23:20 -35.51585 -58.54297 36757 ft 473 kts 45°
2026-05-08 23:20 -35.47065 -58.48415 36756 ft 474 kts 45°
2026-05-08 23:21 -35.42541 -58.42537 36753 ft 474 kts 44°
2026-05-08 23:21 -35.38008 -58.36658 36753 ft 474 kts 44°
2026-05-08 23:22 -35.33470 -58.30784 36746 ft 474 kts 44°
2026-05-08 23:22 -35.28931 -58.24918 36754 ft 474 kts 44°
2026-05-08 23:23 -35.24384 -58.19053 36745 ft 474 kts 44°
2026-05-08 23:23 -35.19839 -58.13199 36755 ft 474 kts 44°
2026-05-08 23:24 -35.15312 -58.07382 36419 ft 480 kts 44°
2026-05-08 23:24 -35.13012 -58.04429 35883 ft 478 kts 44°
2026-05-08 23:24 -35.10725 -58.01495 35239 ft 477 kts 44°
2026-05-08 23:25 -35.08430 -57.98551 34576 ft 477 kts 44°
2026-05-08 23:25 -35.06140 -57.95620 33883 ft 477 kts 44°
2026-05-08 23:25 -35.03848 -57.92688 33059 ft 478 kts 44°
2026-05-08 23:25 -35.01552 -57.89753 32277 ft 478 kts 44°
2026-05-08 23:26 -34.99251 -57.86814 31497 ft 478 kts 44°
2026-05-08 23:26 -34.96957 -57.83885 30734 ft 478 kts 44°
2026-05-08 23:26 -34.94658 -57.80954 29957 ft 478 kts 44°
2026-05-08 23:26 -34.92361 -57.78027 29026 ft 479 kts 44°
2026-05-08 23:27 -34.90062 -57.75101 28359 ft 474 kts 44°
2026-05-08 23:27 -34.87791 -57.72212 27698 ft 470 kts 44°
2026-05-08 23:27 -34.85800 -57.69682 27176 ft 465 kts 44°
2026-05-08 23:27 -34.83614 -57.66908 26578 ft 462 kts 44°
2026-05-08 23:28 -34.81409 -57.64113 25971 ft 458 kts 43°
2026-05-08 23:28 -34.79208 -57.61324 25388 ft 455 kts 44°
2026-05-08 23:28 -34.77019 -57.58553 24812 ft 453 kts 44°
2026-05-08 23:28 -34.74843 -57.55792 24219 ft 451 kts 45°
2026-05-08 23:29 -34.72969 -57.52733 23610 ft 452 kts 60°
2026-05-08 23:29 -34.71765 -57.49213 22961 ft 452 kts 74°
2026-05-08 23:29 -34.71236 -57.45453 22295 ft 452 kts 87°
2026-05-08 23:29 -34.71086 -57.41712 21722 ft 447 kts 89°
2026-05-08 23:30 -34.70982 -57.37949 21118 ft 444 kts 88°
2026-05-08 23:30 -34.70894 -57.34566 20601 ft 440 kts 88°
2026-05-08 23:30 -34.70791 -57.30871 20017 ft 436 kts 88°
2026-05-08 23:30 -34.70676 -57.27202 19456 ft 433 kts 88°
2026-05-08 23:31 -34.70550 -57.23561 18905 ft 429 kts 88°
2026-05-08 23:31 -34.70417 -57.19943 18323 ft 427 kts 87°
2026-05-08 23:31 -34.70278 -57.16350 17701 ft 424 kts 87°
2026-05-08 23:31 -34.70138 -57.12798 17086 ft 420 kts 87°
2026-05-08 23:32 -34.69998 -57.09266 16516 ft 416 kts 87°
2026-05-08 23:32 -34.69858 -57.05775 15961 ft 410 kts 88°
2026-05-08 23:32 -34.69719 -57.02326 15401 ft 406 kts 88°
2026-05-08 23:32 -34.69582 -56.98912 14854 ft 402 kts 87°
2026-05-08 23:33 -34.69445 -56.95540 14321 ft 398 kts 87°
2026-05-08 23:33 -34.69308 -56.92194 13777 ft 394 kts 88°
2026-05-08 23:33 -34.69171 -56.88881 13208 ft 391 kts 87°
2026-05-08 23:33 -34.69035 -56.85592 12639 ft 388 kts 88°
2026-05-08 23:34 -34.68898 -56.82332 12091 ft 385 kts 88°
2026-05-08 23:34 -34.68762 -56.79098 11576 ft 381 kts 88°
2026-05-08 23:34 -34.68626 -56.75889 11055 ft 378 kts 88°
2026-05-08 23:34 -34.68491 -56.72709 10691 ft 372 kts 88°
2026-05-08 23:35 -34.68361 -56.69677 10546 ft 359 kts 88°
2026-05-08 23:35 -34.68232 -56.66695 10379 ft 348 kts 88°
2026-05-08 23:35 -34.68106 -56.63798 10229 ft 338 kts 88°
2026-05-08 23:35 -34.67984 -56.60986 10086 ft 328 kts 88°
2026-05-08 23:36 -34.67863 -56.58255 9947 ft 319 kts 88°
2026-05-08 23:36 -34.67745 -56.55603 9813 ft 310 kts 88°
2026-05-08 23:36 -34.67631 -56.53019 9631 ft 304 kts 88°
2026-05-08 23:36 -34.67518 -56.50460 9318 ft 302 kts 88°
2026-05-08 23:37 -34.67405 -56.47920 9020 ft 300 kts 88°
2026-05-08 23:37 -34.67293 -56.45396 8732 ft 298 kts 88°
2026-05-08 23:37 -34.67180 -56.42896 8449 ft 296 kts 88°
2026-05-08 23:37 -34.67068 -56.40411 8170 ft 294 kts 88°
2026-05-08 23:38 -34.66956 -56.37944 7888 ft 292 kts 88°
2026-05-08 23:38 -34.66843 -56.35482 7610 ft 291 kts 88°
2026-05-08 23:38 -34.66731 -56.33040 7344 ft 289 kts 88°
2026-05-08 23:38 -34.66619 -56.30609 7076 ft 287 kts 88°
2026-05-08 23:39 -34.66508 -56.28222 6804 ft 286 kts 88°
2026-05-08 23:39 -34.66396 -56.25807 6532 ft 286 kts 88°
2026-05-08 23:39 -34.66285 -56.23401 6267 ft 285 kts 88°
2026-05-08 23:39 -34.66172 -56.21003 5995 ft 284 kts 87°
2026-05-08 23:40 -34.66059 -56.18609 5699 ft 283 kts 88°
2026-05-08 23:40 -34.65946 -56.16221 5413 ft 283 kts 88°
2026-05-08 23:40 -34.65833 -56.13837 5138 ft 283 kts 88°
2026-05-08 23:40 -34.65720 -56.11455 4857 ft 283 kts 88°
2026-05-08 23:41 -34.65606 -56.09080 4579 ft 283 kts 87°
2026-05-08 23:41 -34.65493 -56.06703 4295 ft 281 kts 87°
2026-05-08 23:41 -34.65379 -56.04335 4023 ft 280 kts 87°
2026-05-08 23:41 -34.65265 -56.01975 3752 ft 279 kts 88°
2026-05-08 23:42 -34.65151 -55.99623 3484 ft 279 kts 87°
2026-05-08 23:42 -34.65039 -55.97314 3402 ft 268 kts 88°
2026-05-08 23:42 -34.64926 -55.95088 3311 ft 264 kts 87°
2026-05-08 23:42 -34.65069 -55.92842 3051 ft 269 kts 116°
2026-05-08 23:43 -34.66129 -55.91010 3028 ft 264 kts 144°
2026-05-08 23:43 -34.67555 -55.89707 3013 ft 257 kts 152°
2026-05-08 23:43 -34.68979 -55.88470 3005 ft 243 kts 152°
2026-05-08 23:43 -34.70304 -55.87304 2990 ft 227 kts 152°
2026-05-08 23:44 -34.71561 -55.86320 2977 ft 199 kts 171°
2026-05-08 23:44 -34.72822 -55.86295 3010 ft 175 kts 207°
2026-05-08 23:44 -34.73896 -55.86933 2956 ft 169 kts 230°
2026-05-08 23:44 -34.74624 -55.88004 2787 ft 165 kts 236°
2026-05-08 23:45 -34.75314 -55.89063 2573 ft 153 kts 238°
2026-05-08 23:45 -34.75930 -55.90051 2382 ft 140 kts 239°
2026-05-08 23:45 -34.76475 -55.90942 2219 ft 123 kts 239°
2026-05-08 23:45 -34.76970 -55.91760 2031 ft 118 kts 239°
2026-05-08 23:46 -34.77457 -55.92566 1883 ft 120 kts 238°
2026-05-08 23:46 -34.77957 -55.93392 1721 ft 121 kts 239°
2026-05-08 23:46 -34.78448 -55.94202 1547 ft 120 kts 238°
2026-05-08 23:46 -34.78937 -55.95008 1389 ft 117 kts 239°
2026-05-08 23:47 -34.79426 -55.95813 1220 ft 120 kts 238°
2026-05-08 23:47 -34.79936 -55.96655 1044 ft 128 kts 237°
2026-05-08 23:47 -34.80472 -55.97541 873 ft 133 kts 237°
2026-05-08 23:47 -34.81037 -55.98472 706 ft 139 kts 236°
2026-05-08 23:48 -34.81613 -55.99417 511 ft 137 kts 237°
2026-05-08 23:48 -34.82182 -56.00342 335 ft 136 kts 236°
2026-05-08 23:48 -34.82739 -56.01255 165 ft 133 kts 237°
2026-05-08 23:48 -34.83255 -56.02126 83 ft 117 kts 235°
2026-05-08 23:49 -34.83610 -56.02710 89 ft 54 kts 232°
2026-05-08 23:49 -34.83713 -56.02850 85 ft 14 kts 199°
2026-05-08 23:49 -34.83819 -56.02849 71 ft 17 kts 179°
2026-05-08 23:49 -34.83933 -56.02810 55 ft 18 kts 150°
2026-05-08 23:50 -34.83965 -56.02698 58 ft 14 kts 69°
2026-05-08 23:50 -34.83948 -56.02587 56 ft 12 kts 88°
2026-05-08 23:50 -34.83948 -56.02489 60 ft 11 kts 90°
2026-05-08 23:50 -34.83948 -56.02394 56 ft 11 kts 90°
2026-05-08 23:51 -34.83948 -56.02304 60 ft 11 kts 90°
2026-05-08 23:51 -34.83905 -56.02246 57 ft 10 kts
2026-05-08 23:51 -34.83835 -56.02240 62 ft 10 kts
2026-05-08 23:51 -34.83769 -56.02215 73 ft 10 kts 43°
2026-05-08 23:52 -34.83727 -56.02152 68 ft 10 kts 53°
2026-05-08 23:52 -34.83686 -56.02083 66 ft 11 kts 53°
2026-05-08 23:52 -34.83635 -56.01998 71 ft 13 kts 54°
2026-05-08 23:52 -34.83583 -56.01912 71 ft 13 kts 53°
2026-05-08 23:53 -34.83531 -56.01827 67 ft 12 kts 55°
2026-05-08 23:53 -34.83553 -56.01748 68 ft 12 kts 141°
2026-05-08 23:53 -34.83590 -56.01713 68 ft 0 kts 143°